Location: Ch?enovice
(49.7164°N, 15.2160°E)
Time: 21:43:07
(UTC+00:00)

Cosmos 2082 Rocket - Pass Details

Date: 23 May 2024
Orbit: 832 x 853 km, 71.0° (Epoch: 20 June)

Event Time Altitude Azimuth Distance (km) Brightness Sun altitude
Exits shadow 01:48:42 - 260° (W) 2,963 4.6 -9.9°
Reaches altitude 10° 01:50:18 10° 269° (W) 2,486 4.3 -9.7°
Maximum altitude 01:54:43 23° 320° (NW) 1,763 4.0 -9.3°
Drops below altitude 10° 01:59:10 10° 11° (NNE) 2,492 5.7 -8.8°
Sets 02:02:11 0° 26° (NNE) 3,429 7.1 -8.4°
